| time (UTC) | temp C | wind direction | speed KPH | gust KPH | rain 1hr cm | rain 24hr cm | rain mn cm | humidity % | barometer mb |
| 20260904073617 | 11 | 90 | 3.2 | 6.4 | 0.00 | 0.76 | 0.00 | 79 | 1012.1 |
| 20260904072617 | 11 | 90 | 4.8 | 9.7 | 0.00 | 0.76 | 0.00 | 79 | 1012.0 |
| 20260904065615 | 11 | 113 | 3.2 | 9.7 | 0.00 | 0.76 | 0.76 | 80 | 1012.1 |
| 20260904064615 | 11 | 113 | 3.2 | 4.8 | 0.00 | 0.76 | 0.76 | 79 | 1012.1 |
| 20260904063617 | 12 | 90 | 3.2 | 4.8 | 0.00 | 0.79 | 0.76 | 80 | 1012.2 |
| 20260904062617 | 12 | 113 | 3.2 | 4.8 | 0.00 | 0.79 | 0.76 | 80 | 1012.2 |
| 20260904061617 | 12 | 0.0 | 1.6 | 0.00 | 0.79 | 0.76 | 80 | 1012.2 | |
| 20260904060617 | 12 | 113 | 1.6 | 3.2 | 0.00 | 0.79 | 0.76 | 80 | 1012.2 |
| 20260904055637 | 12 | 135 | 3.2 | 4.8 | 0.00 | 0.79 | 0.76 | 80 | 1012.1 |
| 20260904054617 | 12 | 135 | 4.8 | 6.4 | 0.00 | 0.79 | 0.76 | 79 | 1012.3 |
| 20260904053617 | 12 | 135 | 3.2 | 3.2 | 0.00 | 0.79 | 0.76 | 78 | 1012.3 |
| 20260904052617 | 12 | 135 | 1.6 | 1.6 | 0.00 | 0.79 | 0.76 | 78 | 1012.2 |
| 20260904051617 | 12 | 158 | 3.2 | 4.8 | 0.00 | 0.79 | 0.76 | 77 | 1012.2 |
| 20260904050637 | 12 | 113 | 1.6 | 3.2 | 0.00 | 0.79 | 0.76 | 77 | 1012.2 |
| 20260904045617 | 12 | 158 | 3.2 | 4.8 | 0.00 | 0.79 | 0.76 | 76 | 1012.1 |
| 20260904044617 | 12 | 135 | 4.8 | 6.4 | 0.00 | 0.79 | 0.76 | 76 | 1012.0 |
| 20260904043617 | 12 | 135 | 3.2 | 4.8 | 0.00 | 0.79 | 0.76 | 76 | 1012.1 |
| 20260904042617 | 12 | 135 | 3.2 | 4.8 | 0.00 | 0.79 | 0.76 | 76 | 1012.1 |
| 20260904041617 | 12 | 135 | 3.2 | 4.8 | 0.00 | 0.79 | 0.76 | 76 | 1012.1 |
| 20260904040617 | 12 | 135 | 3.2 | 4.8 | 0.00 | 0.79 | 0.76 | 76 | 1012.1 |
| 20260904035617 | 12 | 90 | 1.6 | 3.2 | 0.00 | 0.79 | 0.76 | 76 | 1012.1 |
| 20260904034657 | 12 | 68 | 3.2 | 4.8 | 0.00 | 0.79 | 0.76 | 76 | 1012.0 |
| 20260904033617 | 12 | 90 | 3.2 | 6.4 | 0.00 | 0.79 | 0.76 | 76 | 1011.9 |
| 20260904032636 | 12 | 90 | 3.2 | 4.8 | 0.00 | 0.79 | 0.76 | 76 | 1011.7 |
| 20260904031617 | 12 | 90 | 1.6 | 4.8 | 0.00 | 0.79 | 0.76 | 76 | 1011.7 |
| 20260904030637 | 12 | 90 | 1.6 | 4.8 | 0.00 | 0.79 | 0.76 | 76 | 1011.6 |
| 20260904025636 | 12 | 90 | 1.6 | 3.2 | 0.00 | 0.79 | 0.76 | 76 | 1011.6 |
| 20260904024616 | 12 | 113 | 1.6 | 3.2 | 0.00 | 0.79 | 0.76 | 76 | 1011.6 |
| 20260904023637 | 12 | 90 | 1.6 | 1.6 | 0.00 | 0.79 | 0.76 | 76 | 1011.5 |
| 20260904022616 | 12 | 113 | 1.6 | 6.4 | 0.00 | 0.79 | 0.76 | 76 | 1011.4 |
| 20260904021616 | 12 | 90 | 3.2 | 3.2 | 0.00 | 0.79 | 0.76 | 76 | 1011.4 |
| 20260904020657 | 12 | 90 | 3.2 | 4.8 | 0.00 | 0.79 | 0.76 | 76 | 1011.5 |
| 20260904015616 | 12 | 135 | 3.2 | 4.8 | 0.00 | 0.79 | 0.76 | 76 | 1011.5 |
| 20260904014616 | 12 | 113 | 3.2 | 3.2 | 0.00 | 0.79 | 0.76 | 76 | 1011.5 |
| 20260904013616 | 12 | 113 | 3.2 | 4.8 | 0.00 | 0.79 | 0.76 | 75 | 1011.6 |
| 20260904012616 | 12 | 90 | 3.2 | 4.8 | 0.00 | 0.79 | 0.76 | 75 | 1011.7 |
| 20260904011637 | 12 | 90 | 1.6 | 4.8 | 0.00 | 0.79 | 0.76 | 75 | 1011.8 |
| 20260904010617 | 12 | 113 | 1.6 | 4.8 | 0.00 | 0.79 | 0.76 | 75 | 1011.7 |
| 20260904005617 | 13 | 0.0 | 1.6 | 0.00 | 0.79 | 0.76 | 75 | 1011.7 | |
| 20260904004616 | 13 | 0.0 | 1.6 | 0.00 | 0.81 | 0.76 | 76 | 1011.9 | |
| 20260904003616 | 13 | 0.0 | 1.6 | 0.03 | 0.81 | 0.76 | 76 | 1011.9 | |
| 20260904002616 | 13 | 68 | 1.6 | 3.2 | 0.05 | 0.81 | 0.76 | 75 | 1011.9 |
| 20260904001616 | 13 | 0.0 | 1.6 | 0.08 | 0.81 | 0.76 | 76 | 1011.8 | |
| 20260904000616 | 13 | 135 | 1.6 | 3.2 | 0.08 | 0.81 | 0.76 | 75 | 1011.9 |
| 20260903235616 | 13 | 0.0 | 1.6 | 0.08 | 0.81 | 0.76 | 74 | 1011.8 | |
| 20260903234616 | 13 | 0.0 | 1.6 | 0.08 | 0.81 | 0.76 | 73 | 1011.8 | |
| 20260903233616 | 14 | 248 | 1.6 | 3.2 | 0.05 | 0.79 | 0.74 | 71 | 1011.9 |
| 20260903232617 | 15 | 225 | 3.2 | 6.4 | 0.03 | 0.76 | 0.71 | 68 | 1011.8 |
| 20260903231616 | 16 | 270 | 8.0 | 12.9 | 0.00 | 0.76 | 0.69 | 62 | 1011.8 |
| 20260903230637 | 16 | 315 | 3.2 | 4.8 | 0.00 | 0.79 | 0.69 | 62 | 1011.7 |
| 20260903225636 | 16 | 248 | 3.2 | 3.2 | 0.00 | 0.84 | 0.69 | 62 | 1011.8 |
| 20260903224617 | 16 | 0.0 | 0.0 | 0.00 | 0.84 | 0.69 | 65 | 1011.8 | |
| 20260903223656 | 16 | 248 | 1.6 | 3.2 | 0.00 | 0.84 | 0.69 | 62 | 1011.9 |
| 20260903222616 | 16 | 135 | 3.2 | 4.8 | 0.00 | 0.84 | 0.69 | 63 | 1011.9 |
| 20260903221616 | 15 | 135 | 1.6 | 4.8 | 0.00 | 0.84 | 0.69 | 64 | 1012.0 |
| 20260903220616 | 15 | 180 | 3.2 | 8.0 | 0.00 | 0.84 | 0.69 | 65 | 1012.0 |
| 20260903215616 | 15 | 203 | 4.8 | 6.4 | 0.00 | 0.84 | 0.69 | 64 | 1012.0 |
| 20260903214616 | 15 | 180 | 6.4 | 9.7 | 0.00 | 0.86 | 0.69 | 64 | 1012.0 |
| 20260903213616 | 15 | 158 | 3.2 | 6.4 | 0.00 | 0.86 | 0.69 | 68 | 1012.1 |
| 20260903212616 | 15 | 203 | 3.2 | 8.0 | 0.00 | 0.86 | 0.69 | 66 | 1012.1 |
| 20260903211616 | 15 | 203 | 4.8 | 8.0 | 0.00 | 0.89 | 0.69 | 68 | 1012.1 |
| 20260903210616 | 15 | 158 | 4.8 | 8.0 | 0.00 | 0.91 | 0.69 | 69 | 1012.1 |
| 20260903205616 | 15 | 180 | 3.2 | 4.8 | 0.00 | 0.94 | 0.69 | 71 | 1012.0 |
| 20260903204636 | 15 | 113 | 3.2 | 6.4 | 0.00 | 0.97 | 0.69 | 71 | 1012.0 |
| 20260903203616 | 15 | 135 | 4.8 | 6.4 | 0.00 | 1.02 | 0.69 | 70 | 1012.0 |
| 20260903202616 | 15 | 135 | 4.8 | 12.9 | 0.00 | 1.09 | 0.69 | 71 | 1012.0 |
| 20260903201616 | 14 | 135 | 4.8 | 8.0 | 0.00 | 1.14 | 0.69 | 72 | 1011.9 |
| 20260903200636 | 15 | 180 | 4.8 | 6.4 | 0.00 | 1.19 | 0.69 | 72 | 1011.9 |
| 20260903195616 | 15 | 158 | 6.4 | 12.9 | 0.05 | 1.27 | 0.69 | 72 | 1012.0 |
| 20260903194616 | 15 | 180 | 3.2 | 4.8 | 0.25 | 1.30 | 0.69 | 75 | 1012.0 |
| 20260903193636 | 14 | 180 | 3.2 | 8.0 | 0.25 | 1.32 | 0.69 | 77 | 1012.1 |
| 20260903192616 | 13 | 248 | 6.4 | 11.3 | 0.25 | 1.35 | 0.69 | 76 | 1012.1 |
| 20260903191616 | 13 | 270 | 3.2 | 6.4 | 0.25 | 1.37 | 0.69 | 78 | 1012.0 |
| 20260903190635 | 13 | 135 | 3.2 | 6.4 | 0.25 | 1.40 | 0.69 | 77 | 1012.1 |
| 20260903185616 | 14 | 293 | 8.0 | 14.5 | 0.20 | 1.37 | 0.64 | 75 | 1012.1 |
| 20260903184615 | 15 | 203 | 3.2 | 3.2 | 0.00 | 1.22 | 0.43 | 72 | 1011.9 |
| 20260903183616 | 15 | 90 | 3.2 | 3.2 | 0.00 | 1.27 | 0.43 | 74 | 1011.9 |
| 20260903182615 | 15 | 68 | 3.2 | 4.8 | 0.00 | 1.32 | 0.43 | 76 | 1011.9 |
| 20260903181615 | 15 | 135 | 4.8 | 4.8 | 0.00 | 1.37 | 0.43 | 79 | 1012.0 |
| 20260903180616 | 15 | 90 | 3.2 | 4.8 | 0.00 | 1.45 | 0.43 | 79 | 1012.2 |
| 20260903175616 | 15 | 113 | 1.6 | 3.2 | 0.00 | 1.47 | 0.43 | 81 | 1012.1 |
| 20260903174615 | 14 | 0.0 | 3.2 | 0.00 | 1.52 | 0.43 | 84 | 1012.1 | |
| 20260903173615 | 13 | 113 | 3.2 | 4.8 | 0.00 | 1.55 | 0.43 | 84 | 1012.0 |
| 20260903172615 | 13 | 0.0 | 1.6 | 0.00 | 1.55 | 0.43 | 84 | 1012.0 | |
| 20260903171615 | 12 | 135 | 3.2 | 4.8 | 0.05 | 1.55 | 0.43 | 83 | 1012.3 |
| 20260903170616 | 12 | 90 | 1.6 | 4.8 | 0.10 | 1.55 | 0.43 | 84 | 1012.1 |
| 20260903165615 | 12 | 90 | 4.8 | 9.7 | 0.13 | 1.55 | 0.43 | 83 | 1012.2 |
| 20260903164636 | 12 | 90 | 3.2 | 6.4 | 0.15 | 1.55 | 0.43 | 83 | 1012.2 |
| 20260903163655 | 11 | 90 | 4.8 | 6.4 | 0.15 | 1.55 | 0.43 | 83 | 1012.2 |
| 20260903162635 | 11 | 158 | 4.8 | 6.4 | 0.15 | 1.55 | 0.43 | 83 | 1012.4 |
| 20260903161615 | 11 | 113 | 4.8 | 6.4 | 0.10 | 1.50 | 0.38 | 83 | 1012.3 |
| 20260903160635 | 11 | 135 | 1.6 | 3.2 | 0.08 | 1.45 | 0.33 | 82 | 1012.4 |
| 20260903155615 | 11 | 135 | 3.2 | 4.8 | 0.05 | 1.42 | 0.30 | 82 | 1012.4 |
| 20260903154615 | 11 | 113 | 1.6 | 3.2 | 0.05 | 1.40 | 0.28 | 82 | 1012.4 |
| 20260903153615 | 11 | 113 | 1.6 | 3.2 | 0.10 | 1.40 | 0.28 | 82 | 1012.2 |
| 20260903152615 | 11 | 135 | 3.2 | 3.2 | 0.13 | 1.40 | 0.28 | 81 | 1012.3 |
| 20260903151615 | 11 | 113 | 1.6 | 3.2 | 0.13 | 1.40 | 0.28 | 81 | 1012.3 |
| 20260903150615 | 11 | 135 | 6.4 | 11.3 | 0.10 | 1.37 | 0.25 | 81 | 1012.1 |
| 20260903145637 | 11 | 135 | 3.2 | 4.8 | 0.15 | 1.37 | 0.25 | 81 | 1012.2 |
| 20260903144615 | 11 | 135 | 3.2 | 11.3 | 0.18 | 1.35 | 0.23 | 81 | 1012.2 |
| 20260903143615 | 11 | 113 | 4.8 | 9.7 | 0.13 | 1.30 | 0.18 | 81 | 1012.0 |
| 20260903142615 | 11 | 135 | 1.6 | 3.2 | 0.10 | 1.27 | 0.15 | 80 | 1011.7 |
| 20260903141615 | 11 | 158 | 1.6 | 3.2 | 0.13 | 1.27 | 0.15 | 79 | 1011.6 |
| 20260903140615 | 11 | 135 | 3.2 | 6.4 | 0.13 | 1.27 | 0.15 | 79 | 1011.7 |
| 20260903135617 | 11 | 158 | 3.2 | 4.8 | 0.08 | 1.22 | 0.10 | 79 | 1011.6 |
| 20260903134615 | 11 | 158 | 1.6 | 3.2 | 0.03 | 1.17 | 0.05 | 79 | 1011.5 |
| 20260903133617 | 11 | 135 | 1.6 | 3.2 | 0.03 | 1.17 | 0.05 | 78 | 1011.5 |
| 20260903132617 | 11 | 135 | 1.6 | 3.2 | 0.03 | 1.17 | 0.05 | 78 | 1011.5 |
| 20260903131617 | 11 | 0.0 | 1.6 | 0.00 | 1.14 | 0.03 | 77 | 1011.5 | |
| 20260903130617 | 11 | 113 | 1.6 | 4.8 | 0.00 | 1.14 | 0.03 | 76 | 1011.4 |
| 20260903125617 | 11 | 113 | 3.2 | 6.4 | 0.00 | 1.14 | 0.03 | 76 | 1011.3 |
| 20260903124617 | 11 | 113 | 1.6 | 4.8 | 0.00 | 1.14 | 0.03 | 76 | 1011.4 |
| 20260903123618 | 11 | 113 | 1.6 | 3.2 | 0.00 | 1.14 | 0.03 | 76 | 1011.4 |
| 20260903122637 | 11 | 135 | 4.8 | 6.4 | 0.00 | 1.14 | 0.03 | 76 | 1011.4 |
| 20260903121617 | 11 | 135 | 3.2 | 4.8 | 0.00 | 1.14 | 0.03 | 75 | 1011.5 |
| 20260903120617 | 11 | 135 | 1.6 | 3.2 | 0.00 | 1.14 | 0.03 | 76 | 1011.6 |
| 20260903115657 | 11 | 135 | 4.8 | 8.0 | 0.00 | 1.14 | 0.03 | 76 | 1011.5 |
| 20260903114617 | 11 | 135 | 4.8 | 8.0 | 0.00 | 1.14 | 0.03 | 76 | 1011.6 |
| 20260903113617 | 11 | 135 | 4.8 | 8.0 | 0.00 | 1.14 | 0.03 | 77 | 1011.6 |
| 20260903112617 | 11 | 135 | 4.8 | 8.0 | 0.00 | 1.14 | 0.03 | 78 | 1011.4 |
| 20260903111617 | 11 | 113 | 3.2 | 6.4 | 0.00 | 1.14 | 0.03 | 79 | 1011.6 |
| 20260903110617 | 11 | 158 | 3.2 | 4.8 | 0.00 | 1.14 | 0.03 | 81 | 1011.5 |
| 20260903105617 | 11 | 135 | 4.8 | 8.0 | 0.00 | 1.14 | 0.03 | 82 | 1011.5 |
| 20260903104616 | 11 | 135 | 3.2 | 4.8 | 0.00 | 1.14 | 0.03 | 81 | 1011.5 |
| 20260903103617 | 11 | 135 | 3.2 | 4.8 | 0.00 | 1.14 | 0.03 | 82 | 1011.7 |
| 20260903102636 | 11 | 135 | 3.2 | 6.4 | 0.00 | 1.14 | 0.03 | 82 | 1011.6 |
| 20260903101617 | 12 | 135 | 1.6 | 3.2 | 0.00 | 1.14 | 0.03 | 82 | 1011.5 |
| 20260903100636 | 12 | 135 | 3.2 | 4.8 | 0.00 | 1.14 | 0.03 | 82 | 1011.4 |
| 20260903095637 | 12 | 90 | 3.2 | 6.4 | 0.00 | 1.14 | 0.03 | 82 | 1011.3 |
| 20260903094637 | 12 | 113 | 1.6 | 3.2 | 0.00 | 1.14 | 0.03 | 82 | 1011.4 |
| 20260903093637 | 12 | 113 | 3.2 | 4.8 | 0.00 | 1.14 | 0.03 | 82 | 1011.4 |
| 20260903092617 | 12 | 135 | 1.6 | 3.2 | 0.00 | 1.14 | 0.03 | 82 | 1011.5 |
| 20260903091616 | 12 | 158 | 1.6 | 3.2 | 0.00 | 1.14 | 0.03 | 81 | 1011.5 |
| 20260903090616 | 12 | 113 | 3.2 | 4.8 | 0.03 | 1.14 | 0.03 | 81 | 1011.5 |
| 20260903085617 | 12 | 90 | 1.6 | 3.2 | 0.03 | 1.14 | 0.03 | 80 | 1011.4 |
| 20260903084616 | 12 | 135 | 1.6 | 3.2 | 0.03 | 1.14 | 0.03 | 80 | 1011.5 |
| 20260903083617 | 12 | 90 | 3.2 | 4.8 | 0.03 | 1.14 | 0.03 | 80 | 1011.6 |
| 20260903082616 | 12 | 158 | 1.6 | 3.2 | 0.03 | 1.14 | 0.03 | 78 | 1011.6 |
| 20260903081617 | 12 | 135 | 1.6 | 3.2 | 0.03 | 1.14 | 0.03 | 78 | 1011.8 |
| 20260903080616 | 12 | 158 | 3.2 | 4.8 | 0.00 | 1.12 | 0.00 | 78 | 1011.8 |
| 20260903075638 | 12 | 135 | 4.8 | 8.0 | 0.00 | 1.12 | 0.00 | 78 | 1011.7 |
| 20260903074616 | 12 | 158 | 4.8 | 8.0 | 0.00 | 1.12 | 0.00 | 77 | 1011.7 |